When you browse on this site, cookies collect data to enhance your experience and personalize the content and advertising you see.
Visit our Privacy Policy to learn more. By continuing to use the site, you agree to this use of cookies and data.
  • In Romania
  • List of Countries
  • For 7 days
  • Water Temperature
  • Satellite Maps
  • Weather Map
  • Weather Widgets
  • user-avatar
    Login

    Hourly Weather Al Hilla

    Today, 19 November, Monday

    Time Temperature Precipitation Wind Pressure Humidity
    00:00 +19°C° 0 mm 2 mps 762 mmHg 54%
    01:00 +19°C° 0 mm 2 mps 762 mmHg 55%
    02:00 +19°C° 0 mm 2 mps 761 mmHg 56%
    03:00 +19°C° 0 mm 2 mps 761 mmHg 57%
    04:00 +19°C° 0 mm 2 mps 761 mmHg 58%
    05:00 +18°C° 0 mm 2 mps 761 mmHg 58%
    06:00 +18°C° 0 mm 2 mps 761 mmHg 59%
    07:00 +19°C° 0 mm 3 mps 761 mmHg 56%
    08:00 +20°C° 0 mm 3 mps 762 mmHg 53%
    09:00 +21°C° 0 mm 3 mps 762 mmHg 50%
    10:00 +22°C° 0 mm 4 mps 762 mmHg 46%
    11:00 +23°C° 0 mm 4 mps 762 mmHg 43%
    12:00 +25°C° 0 mm 4 mps 761 mmHg 39%
    13:00 +25°C° 0 mm 4 mps 761 mmHg 38%
    14:00 +25°C° 0 mm 4 mps 761 mmHg 37%
    15:00 +25°C° 0 mm 4 mps 761 mmHg 36%
    16:00 +25°C° 0 mm 4 mps 761 mmHg 38%
    17:00 +24°C° 0 mm 3 mps 761 mmHg 39%
    18:00 +24°C° 0 mm 3 mps 761 mmHg 41%
    19:00 +22°C° 0 mm 3 mps 761 mmHg 42%
    20:00 +22°C° 0 mm 3 mps 761 mmHg 43%
    21:00 +21°C° 0 mm 3 mps 761 mmHg 45%
    22:00 +21°C° 0 mm 3 mps 761 mmHg 46%
    23:00 +21°C° 0 mm 3 mps 761 mmHg 47%

    Tomorrow, 20 November, Tuesday

    Time Temperature Precipitation Wind Pressure Humidity
    00:00 +20°C° 0 mm 3 mps 761 mmHg 48%
    01:00 +20°C° 0 mm 3 mps 761 mmHg 48%
    02:00 +20°C° 0 mm 3 mps 761 mmHg 49%
    03:00 +20°C° 0 mm 3 mps 761 mmHg 50%
    04:00 +19°C° 0 mm 3 mps 761 mmHg 50%
    05:00 +19°C° 0 mm 3 mps 761 mmHg 51%
    06:00 +19°C° 0 mm 3 mps 761 mmHg 52%
    07:00 +20°C° 0 mm 3 mps 762 mmHg 49%
    08:00 +20°C° 0 mm 4 mps 762 mmHg 46%
    09:00 +21°C° 0 mm 4 mps 762 mmHg 43%
    10:00 +22°C° 0 mm 4 mps 762 mmHg 40%
    11:00 +23°C° 0 mm 4 mps 762 mmHg 36%
    12:00 +25°C° 0 mm 5 mps 762 mmHg 33%
    13:00 +26°C° 0 mm 5 mps 762 mmHg 32%
    14:00 +26°C° 0 mm 5 mps 761 mmHg 31%
    15:00 +26°C° 0 mm 5 mps 761 mmHg 31%
    16:00 +25°C° 0 mm 4 mps 761 mmHg 33%
    17:00 +25°C° 0 mm 4 mps 761 mmHg 35%
    18:00 +24°C° 0 mm 3 mps 761 mmHg 37%
    19:00 +22°C° 0 mm 3 mps 761 mmHg 38%
    20:00 +22°C° 0 mm 3 mps 761 mmHg 39%
    21:00 +21°C° 0 mm 2 mps 762 mmHg 41%
    22:00 +21°C° 0 mm 2 mps 762 mmHg 42%
    23:00 +20°C° 0 mm 2 mps 761 mmHg 42%

    Day after tomorrow, 21 November, Wednesday

    Time Temperature Precipitation Wind Pressure Humidity
    00:00 +20°C° 0 mm 2 mps 761 mmHg 43%
    01:00 +20°C° 0 mm 2 mps 761 mmHg 44%
    02:00 +20°C° 0 mm 2 mps 761 mmHg 45%
    03:00 +19°C° 0 mm 2 mps 761 mmHg 45%
    04:00 +19°C° 0 mm 2 mps 761 mmHg 46%
    05:00 +19°C° 0 mm 2 mps 761 mmHg 48%
    06:00 +18°C° 0 mm 2 mps 761 mmHg 49%
    07:00 +19°C° 0 mm 2 mps 761 mmHg 46%
    08:00 +20°C° 0 mm 2 mps 761 mmHg 43%
    09:00 +21°C° 0 mm 2 mps 762 mmHg 40%
    10:00 +24°C° 0 mm 2 mps 761 mmHg 36%
    11:00 +25°C° 0 mm 2 mps 761 mmHg 33%
    12:00 +26°C° 0 mm 2 mps 761 mmHg 30%
    13:00 +26°C° 0 mm 2 mps 760 mmHg 28%
    14:00 +27°C° 0 mm 2 mps 760 mmHg 27%
    15:00 +27°C° 0 mm 2 mps 760 mmHg 26%
    16:00 +26°C° 0 mm 2 mps 759 mmHg 28%
    17:00 +25°C° 0 mm 1 mps 759 mmHg 30%
    18:00 +24°C° 0 mm 1 mps 759 mmHg 33%
    19:00 +24°C° 0 mm 1 mps 759 mmHg 33%
    20:00 +24°C° 0 mm 1 mps 759 mmHg 33%
    21:00 +23°C° 0 mm 1 mps 760 mmHg 34%
    22:00 +23°C° 0 mm 2 mps 759 mmHg 34%
    23:00 +23°C° 0 mm 2 mps 759 mmHg 35%

    22 November, Thursday

    Time Temperature Precipitation Wind Pressure Humidity
    00:00 +22°C° 0 mm 3 mps 759 mmHg 35%
    01:00 +22°C° 0 mm 3 mps 759 mmHg 36%
    02:00 +21°C° 0 mm 3 mps 759 mmHg 37%
    03:00 +21°C° 0 mm 3 mps 758 mmHg 38%
    04:00 +21°C° 0 mm 3 mps 758 mmHg 38%
    05:00 +21°C° 0 mm 3 mps 758 mmHg 39%
    06:00 +20°C° 0 mm 3 mps 758 mmHg 39%
    07:00 +21°C° 0 mm 3 mps 759 mmHg 38%
    08:00 +22°C° 0 mm 4 mps 759 mmHg 36%
    09:00 +22°C° 0 mm 5 mps 759 mmHg 35%
    10:00 +23°C° 0 mm 5 mps 759 mmHg 33%
    11:00 +25°C° 0 mm 5 mps 758 mmHg 31%
    12:00 +26°C° 0 mm 5 mps 758 mmHg 29%
    13:00 +26°C° 0 mm 6 mps 757 mmHg 29%
    14:00 +27°C° 0 mm 6 mps 757 mmHg 28%
    15:00 +27°C° 0 mm 6 mps 756 mmHg 28%
    16:00 +26°C° 0 mm 5 mps 756 mmHg 29%
    17:00 +25°C° 0 mm 5 mps 756 mmHg 31%
    18:00 +25°C° 0 mm 4 mps 756 mmHg 32%
    19:00 +25°C° 0 mm 5 mps 757 mmHg 32%
    20:00 +23°C° 0 mm 5 mps 757 mmHg 33%
    21:00 +23°C° 0 mm 5 mps 757 mmHg 33%
    22:00 +23°C° 0.2 mm 6 mps 757 mmHg 36%
    23:00 +22°C° 0.2 mm 6 mps 756 mmHg 39%

    23 November, Friday

    Time Temperature Precipitation Wind Pressure Humidity
    00:00 +22°C° 0.2 mm 6 mps 756 mmHg 43%
    01:00 +21°C° 0.5 mm 6 mps 756 mmHg 47%
    02:00 +21°C° 0.5 mm 6 mps 756 mmHg 52%
    03:00 +20°C° 0.5 mm 6 mps 756 mmHg 56%
    04:00 +20°C° 0.7 mm 6 mps 756 mmHg 63%
    05:00 +19°C° 0.7 mm 6 mps 756 mmHg 69%
    06:00 +19°C° 0.7 mm 6 mps 756 mmHg 75%
    07:00 +18°C° 0.4 mm 7 mps 756 mmHg 73%
    08:00 +18°C° 0.4 mm 8 mps 757 mmHg 71%
    09:00 +20°C° 0.4 mm 8 mps 757 mmHg 69%
    10:00 +21°C° 0 mm 9 mps 757 mmHg 66%
    11:00 +21°C° 0 mm 9 mps 757 mmHg 63%
    12:00 +22°C° 0 mm 9 mps 757 mmHg 59%
    13:00 +22°C° 0 mm 9 mps 756 mmHg 60%
    14:00 +22°C° 0 mm 8 mps 756 mmHg 61%
    15:00 +21°C° 0 mm 8 mps 756 mmHg 62%
    16:00 +21°C° 0.1 mm 8 mps 757 mmHg 65%
    17:00 +20°C° 0.1 mm 7 mps 757 mmHg 68%
    18:00 +18°C° 0.1 mm 7 mps 758 mmHg 71%
    19:00 +17°C° 0.1 mm 7 mps 758 mmHg 73%
    20:00 +17°C° 0.1 mm 7 mps 759 mmHg 74%
    21:00 +17°C° 0.1 mm 8 mps 759 mmHg 76%
    22:00 +16°C° 0 mm 7 mps 759 mmHg 75%
    23:00 +16°C° 0 mm 7 mps 759 mmHg 75%

    24 November, Saturday

    Time Temperature Precipitation Wind Pressure Humidity
    00:00 +16°C° 0 mm 7 mps 759 mmHg 75%
    01:00 +15°C° 0 mm 7 mps 759 mmHg 76%
    02:00 +15°C° 0 mm 7 mps 759 mmHg 76%
    03:00 +15°C° 0 mm 7 mps 759 mmHg 76%
    04:00 +15°C° 0.2 mm 7 mps 759 mmHg 76%
    05:00 +15°C° 0.2 mm 6 mps 760 mmHg 76%
    06:00 +15°C° 0.2 mm 6 mps 760 mmHg 75%
    07:00 +16°C° 0.9 mm 7 mps 760 mmHg 76%
    08:00 +16°C° 0.9 mm 7 mps 760 mmHg 77%
    09:00 +17°C° 0.9 mm 7 mps 761 mmHg 78%
    10:00 +18°C° 0.3 mm 8 mps 760 mmHg 73%
    11:00 +21°C° 0.3 mm 8 mps 760 mmHg 68%
    12:00 +22°C° 0.3 mm 9 mps 759 mmHg 63%
    13:00 +23°C° 0 mm 9 mps 759 mmHg 62%
    14:00 +23°C° 0 mm 9 mps 758 mmHg 61%
    15:00 +23°C° 0 mm 9 mps 758 mmHg 60%
    16:00 +23°C° 0.7 mm 9 mps 757 mmHg 63%
    17:00 +22°C° 0.7 mm 9 mps 757 mmHg 65%
    18:00 +21°C° 0.7 mm 9 mps 757 mmHg 68%
    19:00 +21°C° 1.2 mm 10 mps 757 mmHg 69%
    20:00 +21°C° 1.2 mm 10 mps 757 mmHg 71%
    21:00 +21°C° 1.2 mm 10 mps 758 mmHg 72%
    22:00 +21°C° 0.7 mm 9 mps 757 mmHg 73%
    23:00 +21°C° 0.7 mm 9 mps 757 mmHg 75%
    Show more